Language selection

My Weather Profile Weather Topics  | 

Western Lake Superior: Past 24 Hour Conditions

 

Welcome Island

03:00 PM EDT 20 October 2021
Disclaimer

This table is a summary of hourly weather conditions for the past 24 hours.
Please note that these observations might not always be representative of weather conditions over their associated marine area.

Date / Time
(EDT)
Wind(knots) Conditions Visibility(km) Pressure(kPa) Air tempC) Relative humidity(%) Dew pointC)
20 October 2021
15:00 NE 7 N/A N/A 102.1 7 62 0
14:00 NE 5 N/A N/A 102.1 7 64 0
13:00 NNE 8 N/A N/A 102.2 6 65 0
12:00 N 10 N/A N/A 102.3 6 65 0
11:00 NE 12 gust 17 N/A N/A 102.2 5 71 1
10:00 NNE 16 N/A N/A 102.2 6 72 1
9:00 NNE 19 N/A N/A 102.2 5 73 1
8:00 NNE 18 gust 23 N/A N/A 102.1 6 75 2
7:00 NE 16 N/A N/A 102.1 7 72 2
6:00 NE 17 N/A N/A 102.1 7 73 3
5:00 NE 19 gust 24 N/A N/A 102.1 8 73 3
4:00 NNE 17 N/A N/A 102.0 8 77 4
3:00 NNE 19 N/A N/A 102.0 8 77 4
2:00 NNE 18 gust 23 N/A N/A 101.9 8 80 5
1:00 NNE 16 gust 24 N/A N/A 101.9 9 81 6
0:00 NNE 15 gust 20 N/A N/A 101.8 10 80 6
19 October 2021
23:00 N 12 N/A N/A 101.7 10 81 7
22:00 N 13 gust 20 N/A N/A 101.6 10 81 7
21:00 N 17 N/A N/A 101.5 12 81 9
20:00 ENE 16 N/A N/A 101.3 14 83 11
19:00 WNW 6 N/A N/A 101.2 14 80 11
18:00 SW 9 gust 16 N/A N/A 101.1 14 78 11
17:00 SSW 12 gust 19 N/A N/A 101.0 15 74 10
16:00 SW 14 gust 19 N/A N/A 101.0 16 67 10
15:00 SSW 12 gust 19 N/A N/A 101.0 16 69 10

Zoom-in to make a selection

Map of Great Lakes - Lake Superior marine weather areas Mid Superior - 45001 East Superior - 45004 West Superior - 45006 Slate Island - 45136 Lake Of the Woods - 45148 Kenora Airport Royal Island Armstrong Airport Caribou Island Marathon Airport Pukaskwa National Park Thunder Bay Airport Welcome Island Little Flatland Island Sault Ste. Marie Airport Wawa Airport
Legend:
buoy Buoy
land station Land Station

Great Lakes - Lake Superior Area

Another Region

What we are doing

Date modified: